Simultaneous Nadir Overpasses (SNOs) Predictions

Prediction of SNOs between NOAA-19 and NPP Satellite Orbit:

Table of predicted SNOs for the next 14.0 days since TLE Epoch: 1/2/2021
Index Date (NOAA-19) Time (NOAA-19) Lat,Lon (NOAA-19) SZA (NOAA-19 ) Date (NPP) Time (NPP) Lat,Lon (NPP) SZA (NPP ) Distance(km) Time Diff (sec)
1 01/02/2021 04:59:12 -78.78,-103.92 76.97 01/02/2021 04:59:52 -78.75,-103.90 77.01 3.08 40
2 01/02/2021 05:50:15 78.78, 63.34 103.04 01/02/2021 05:50:38 78.77, 63.26 103.03 1.79 23
3 01/02/2021 06:41:13 -78.76,-129.56 76.98 01/02/2021 06:41:23 -78.79,-129.53 76.96 3.54 10
4 01/02/2021 07:32:15 78.80, 37.95 103.03 01/02/2021 07:32:08 78.78, 37.87 103.03 2.81 7
5 01/02/2021 08:23:13 -78.77,-154.94 76.98 01/02/2021 08:22:53 -78.79,-154.93 76.96 2.21 20
6 01/02/2021 09:14:16 78.78, 12.32 103.02 01/02/2021 09:13:38 78.78, 12.47 103.03 3.29 38
7 01/02/2021 10:05:13 -78.79, 179.67 76.98 01/02/2021 10:04:23 -78.80, 179.68 76.96 0.88 50
8 01/02/2021 10:56:16 78.79, -13.06 103.02 01/02/2021 10:55:08 78.78, -12.92 103.02 3.21 68



Historial Predications of SNOs between NOAA-19 and NPP
